This is the latest recevied weather packets stored in our database for station/object K1BWE-1. If no packets are shown the sender has not sent any weather packets the latest 10 day(s).
| Time | Temp. | Humidity | Pressure | Rain* | Wind** | Luminosity | Snow |
|---|---|---|---|---|---|---|---|
| 1778114685 | 25° C | 20% | 1015.1 hPa | 0 mm | - | 115 W/m² | - |
| 1778114383 | 25° C | 22% | 1015.1 hPa | 0 mm | - | 136 W/m² | - |
| 1778114077 | 25.56° C | 22% | 1015.1 hPa | 0 mm | - | 173 W/m² | - |
| 1778113772 | 25.56° C | 20% | 1015 hPa | 0 mm | - | 183 W/m² | - |
| 1778113469 | 25° C | 23% | 1015 hPa | 0 mm | - | 183 W/m² | - |
| 1778113166 | 25.56° C | 22% | 1015.1 hPa | 0 mm | - | 192 W/m² | - |
| 1778112863 | 26.11° C | 22% | 1014.9 hPa | 0 mm | - | 231 W/m² | - |
| 1778112561 | 26.11° C | 20% | 1015.1 hPa | 0 mm | - | 223 W/m² | - |
| 1778112256 | 25.56° C | 21% | 1015.2 hPa | 0 mm | - | 245 W/m² | - |
| 1778111951 | 25.56° C | 20% | 1015 hPa | 0 mm | - | 264 W/m² | - |
| 1778111649 | 25.56° C | 21% | 1015 hPa | 0 mm | - | 279 W/m² | - |
| 1778111344 | 26.11° C | 20% | 1014.9 hPa | 0 mm | - | 289 W/m² | - |
| 1778111043 | 25.56° C | 22% | 1014.7 hPa | 0 mm | - | 317 W/m² | - |
| 1778110740 | 25.56° C | 20% | 1015 hPa | 0 mm | - | 323 W/m² | - |
| 1778110435 | 25.56° C | 20% | 1015.1 hPa | 0 mm | - | 329 W/m² | - |
| 1778110133 | 26.11° C | 21% | 1015.2 hPa | 0 mm | - | 361 W/m² | - |
| 1778109829 | 25.56° C | 22% | 1015 hPa | 0 mm | - | 409 W/m² | - |
| 1778109525 | 25.56° C | 20% | 1015.1 hPa | 0 mm | - | 421 W/m² | - |
| 1778109223 | 26.11° C | 22% | 1015 hPa | 0 mm | - | 435 W/m² | - |
| 1778108920 | 26.11° C | 20% | 1015.1 hPa | 0 mm | - | 443 W/m² | - |
| 1778108617 | 26.67° C | 20% | 1015.3 hPa | 0 mm | - | 475 W/m² | - |
| 1778108313 | 27.22° C | 19% | 1014.9 hPa | 0 mm | - | 494 W/m² | - |
| 1778108011 | 26.67° C | 23% | 1014.8 hPa | 0 mm | - | 502 W/m² | - |
| 1778107707 | 26.11° C | 23% | 1015.3 hPa | 0 mm | - | 511 W/m² | - |
| 1778107405 | 25.56° C | 23% | 1015 hPa | 0 mm | - | 534 W/m² | - |
* Rain latest hour (hover to see other rain measurements)
** Current wind speed in m/s (hover to see current wind gust speed)